KINEIS-2B

Last updated on Mon Dec 15 2025 00:02:49 GMT+0000 (Coordinated Universal Time)

1 62934U 25028G 25348.11492530 .00002062 00000+0 33012-3 0 9999 2 62934 97.9939 39.1549 0004137 42.4170 317.7357 14.72808949 45415
UTC large
Height (km)
Speed (km/s)
/
Latitude / Longitude
Inclination (degrees)
Orbital Period (minutes)
Azimuth
Elevation
Range (km)
Doppler Factor

Next 0 passes for location: London (51.5072 / 0.1276)

Sorry there are no passes over London.